GFSGL_250_spd_024.txt.gz
Wind_Speed
2 4 12 18 24 19 20 25 24 21 20 18 15 15 19 19 17 17 20 23 26 36 42 58 56 56 59 60 63 63 55 72 53 60 62 59 52 41 50 44 44 39 38
4 4 10 18 22 16 22 29 31 25 20 20 17 18 19 20 18 20 21 21 26 36 50 57 61 55 55 54 56 61 55 73 54 63 63 59 55 52 42 45 40 40 40
6 6 5 13 20 25 23 29 30 29 22 22 18 19 19 20 20 19 22 21 25 43 48 57 61 54 50 52 48 47 58 63 59 65 61 64 58 53 47 40 46 45 43
8 6 3 10 16 25 22 23 27 25 21 20 19 21 17 15 15 17 21 18 26 38 40 50 60 51 49 46 47 45 46 45 61 68 65 57 65 39 43 43 40 39 43
8 8 5 5 12 19 23 26 19 24 21 23 18 18 20 16 13 13 15 20 20 35 29 37 48 50 51 45 47 41 34 36 38 75 68 60 59 52 45 43 46 48 47
2 13 9 3 8 15 20 23 22 19 17 19 24 22 23 18 17 15 17 19 21 22 32 25 30 43 43 42 38 34 29 25 20 28 67 54 53 49 53 48 49 47 43
2 6 13 4 7 5 10 17 22 18 15 13 16 19 24 23 18 17 20 19 19 25 22 18 24 18 24 32 32 34 24 27 33 29 39 32 35 35 47 51 47 45 43
5 4 13 10 7 1 5 8 13 18 15 14 18 14 22 23 20 17 18 24 27 30 18 14 21 13 15 17 14 26 33 28 25 25 31 44 36 34 36 46 44 40 38
8 5 9 14 13 5 5 5 7 11 12 10 10 9 10 13 23 20 24 24 26 24 17 18 25 24 25 28 26 18 22 24 24 28 27 28 30 30 33 32 35 39 42
7 9 7 7 9 9 5 2 3 7 8 7 9 8 4 4 15 21 22 25 20 17 17 17 23 22 26 22 19 22 20 20 26 28 30 32 27 25 26 35 43 49 50
6 6 7 7 3 7 8 7 4 3 3 6 6 6 5 5 5 15 16 18 22 24 17 15 15 19 21 16 18 13 13 17 20 21 24 29 32 31 41 47 44 44 51
7 5 4 5 5 5 2 3 7 6 5 5 6 6 6 5 7 9 12 17 16 19 21 20 20 19 20 19 18 24 21 28 32 33 27 35 45 46 46 50 53 59 64
7 4 4 4 3 3 4 3 2 2 4 4 7 10 10 8 8 11 10 15 17 20 21 23 24 24 25 28 33 27 31 33 33 37 42 47 49 46 54 57 57 60 66
10 6 3 2 2 2 1 0 1 2 2 2 4 8 10 11 14 14 14 16 19 19 24 23 27 28 31 31 33 37 38 39 44 47 48 50 54 57 60 64 68 66 59
11 10 6 3 2 2 1 0 0 0 1 1 2 4 5 5 10 16 18 19 20 21 21 24 28 31 30 28 31 37 40 41 44 47 46 50 51 49 47 48 50 51 53
10 10 10 7 2 2 2 2 2 2 2 2 4 6 5 7 9 10 11 13 17 20 22 25 27 29 30 32 34 36 38 40 42 43 43 44 44 45 44 45 46 47 48
11 11 9 9 6 3 1 3 2 5 5 5 5 4 6 9 11 12 13 14 17 18 19 21 23 25 26 29 32 32 34 34 35 37 37 38 39 40 40 43 45 47 47
12 11 11 9 9 8 7 6 5 4 4 6 8 10 11 11 12 13 13 15 18 20 21 21 22 23 24 27 29 31 31 33 34 35 35 35 40 42 44 46 48 50 53
15 14 12 11 10 9 9 9 9 10 9 9 9 9 12 14 15 17 17 18 18 18 19 20 20 20 22 25 25 25 26 28 29 30 33 36 36 38 45 49 52 55 58
15 15 17 15 13 12 12 12 11 11 12 12 10 12 14 16 18 21 20 21 22 24 24 24 24 24 25 27 29 28 28 27 28 32 37 39 42 43 46 50 53 56 57
21 18 19 18 18 17 14 14 15 16 16 16 15 15 16 18 19 21 25 27 26 27 28 29 29 30 29 30 31 33 34 35 37 39 41 44 44 49 50 51 55 56 61
27 23 22 21 19 16 12 15 16 18 20 21 21 20 19 20 22 22 22 24 28 30 30 32 33 34 36 37 37 39 40 42 45 47 46 49 50 50 53 57 60 59 62
39 33 28 25 21 16 15 13 15 18 20 23 24 24 25 25 25 26 28 28 28 29 29 31 34 37 39 41 42 43 44 46 48 51 52 51 51 52 55 59 62 64 63
34 32 34 28 26 23 22 18 16 21 23 29 25 26 32 35 35 32 33 34 30 32 33 35 38 39 38 38 41 45 48 50 46 57 56 56 56 56 55 57 58 61 62
47 44 39 40 34 31 28 34 37 34 28 36 40 37 29 39 47 45 42 37 34 34 35 28 28 28 34 40 44 46 46 49 52 56 58 58 57 56 57 58 59 60 62
36 38 45 44 38 37 37 36 30 27 41 46 47 45 43 50 45 41 40 37 35 32 30 29 32 37 41 48 50 51 52 53 55 56 56 55 53 54 56 57 58 59 66

GFSGL_250_spd_030.txt.gz
Wind_Speed
16 7 8 12 10 17 15 15 13 11 9 7 7 11 13 15 18 19 20 19 19 27 36 58 60 65 62 64 59 54 55 52 53 52 56 53 48 41 40 38 40 40 39
9 4 5 10 11 13 14 15 13 12 11 9 10 12 11 13 17 20 26 29 40 44 52 56 66 68 62 56 52 48 52 49 50 52 50 50 46 45 42 40 43 38 41
0 7 2 10 14 12 17 17 13 17 13 13 11 14 16 18 22 30 37 41 43 51 53 56 65 61 59 57 48 49 43 46 53 47 42 46 45 40 43 36 42 46 45
6 8 2 9 18 14 13 20 15 19 18 15 14 15 22 21 30 37 45 36 44 52 49 55 61 55 58 51 34 43 41 50 50 49 49 38 45 33 42 44 39 40 39
8 13 4 8 13 19 15 17 19 19 19 16 15 13 20 22 30 43 43 27 45 51 55 57 47 48 47 49 41 39 45 41 48 48 50 34 39 49 34 30 41 44 51
6 14 10 5 5 12 15 16 14 17 23 17 16 13 14 25 35 53 37 24 49 50 52 54 53 47 42 39 44 44 39 38 49 40 47 45 32 31 50 36 38 34 37
5 15 15 8 3 4 12 14 13 17 17 20 15 11 10 21 32 49 37 23 37 54 47 43 48 48 40 37 42 48 36 41 44 44 43 47 48 36 29 38 43 40 38
2 9 18 14 10 5 5 11 13 12 15 19 19 14 12 13 30 47 34 26 25 49 45 40 42 43 42 40 35 43 41 29 36 47 38 36 51 51 45 41 37 37 36
7 6 10 13 9 9 7 4 11 12 11 17 21 20 14 14 21 41 38 26 20 28 42 36 41 42 42 45 37 38 44 34 31 37 33 38 37 41 40 49 45 46 48
8 8 5 9 10 10 8 6 3 8 15 13 16 22 22 18 20 22 35 26 23 19 23 21 26 33 46 42 29 31 29 41 35 29 27 29 39 42 41 40 44 42 44
6 9 8 5 9 8 8 4 6 8 6 10 13 14 21 20 30 27 26 26 21 22 27 17 18 19 23 33 24 30 35 37 27 28 31 28 29 31 34 35 37 40 41
8 7 7 6 6 8 11 9 9 8 10 6 9 12 20 16 24 20 23 21 17 21 20 17 19 21 23 20 18 12 19 33 33 33 30 31 30 31 35 39 41 40 43
17 10 6 6 7 7 5 6 9 10 12 13 11 12 11 14 13 13 16 20 20 22 22 18 15 17 15 19 20 21 22 22 27 29 23 30 34 36 40 39 40 42 51
15 17 11 6 6 6 7 6 5 5 7 10 13 16 15 14 14 16 17 16 16 17 25 24 20 17 23 25 18 21 25 24 27 27 29 30 33 43 43 41 46 52 55
12 14 17 13 9 6 5 5 6 5 5 4 5 11 16 18 18 17 14 17 19 21 21 23 23 27 26 26 25 27 31 31 32 37 42 39 41 41 51 53 54 57 60
8 12 13 15 15 14 12 8 5 5 5 4 3 2 4 8 14 18 21 21 22 21 22 25 28 31 33 33 35 33 34 35 37 40 39 38 42 45 47 50 55 58 61
3 5 9 10 11 10 11 12 12 10 7 5 3 2 2 1 3 5 7 12 17 22 26 27 27 28 32 32 31 33 35 36 39 41 45 47 47 49 52 53 51 50 49
3 2 2 5 7 8 8 9 10 10 10 10 9 7 3 1 1 2 3 4 7 10 12 14 16 19 21 22 23 25 27 29 30 32 33 35 35 35 36 39 41 44 46
9 6 6 4 2 1 3 3 5 6 8 9 10 9 8 8 9 9 7 5 3 6 7 8 10 12 13 15 17 19 21 22 24 26 28 30 33 36 39 41 44 46 48
12 10 10 10 9 6 4 2 2 2 3 4 5 8 14 17 21 17 13 10 8 7 7 8 11 13 15 16 17 18 20 22 22 25 27 30 32 35 38 42 45 48 51
18 16 13 11 13 13 12 8 8 5 2 7 11 16 18 15 15 20 20 20 20 11 5 5 5 6 6 6 14 23 31 25 15 23 30 38 41 36 39 41 45 49 50
25 21 19 16 15 16 16 14 13 10 15 12 11 16 11 9 11 12 19 22 26 20 21 12 6 4 2 8 23 35 36 40 28 31 31 40 47 52 41 41 43 48 50
33 30 28 23 21 18 19 18 18 19 19 19 14 11 7 3 8 13 20 24 24 22 20 16 17 6 4 14 20 37 39 38 38 37 35 36 43 51 53 49 49 54 56
40 37 35 31 26 25 24 27 27 27 27 29 24 20 18 13 12 13 24 29 23 22 23 21 17 10 17 31 32 43 36 43 39 33 36 35 43 44 54 56 50 69 66
45 41 39 36 33 32 29 30 29 28 32 35 36 30 27 22 19 28 30 27 30 26 27 35 33 32 32 34 43 42 47 43 41 45 47 41 52 48 52 60 54 66 57
43 42 43 40 37 34 32 32 29 28 29 37 39 40 36 39 38 38 34 36 37 35 30 28 35 41 42 42 46 53 56 50 47 49 54 46 59 55 59 57 61 70 71

GFSGL_250_spd_033.txt.gz
Wind_Speed
15 13 7 12 15 16 16 14 15 14 12 6 4 7 8 9 9 10 7 13 23 16 37 38 35 41 40 42 45 52 54 58 59 55 48 48 44 42 39 35 33 39 42
12 4 3 11 12 12 12 11 13 14 12 5 4 5 6 10 8 9 12 20 25 37 40 46 50 49 50 47 52 57 59 58 55 53 45 43 38 37 35 36 38 39 37
6 7 1 6 7 8 11 12 12 10 13 9 2 3 5 11 10 19 33 41 46 42 48 50 51 44 49 47 47 53 56 55 51 49 43 39 40 37 40 40 33 32 37
5 9 3 5 10 8 10 11 12 10 10 12 3 3 7 15 26 38 37 43 48 54 54 54 47 44 47 47 49 42 48 43 44 44 40 42 45 35 39 31 34 33 37
7 14 7 2 8 11 12 8 13 13 13 10 6 7 13 25 39 32 31 42 49 52 52 47 47 48 43 50 42 38 45 39 35 38 39 42 38 36 38 38 30 37 41
6 18 11 6 4 11 11 11 14 16 15 20 10 7 16 36 38 25 33 45 46 53 46 41 50 46 36 46 40 24 44 41 39 40 36 32 35 35 30 35 37 35 29
4 17 17 10 2 6 10 8 14 15 9 11 4 4 15 40 32 21 18 41 44 51 39 35 48 46 35 29 34 26 43 41 35 42 30 33 34 37 37 27 24 29 38
4 12 20 15 8 6 6 8 3 8 15 13 5 6 14 41 32 25 14 41 42 48 42 35 44 45 42 28 32 29 31 39 36 35 40 37 30 27 32 42 42 40 38
4 10 19 20 12 7 3 3 7 7 12 16 15 7 13 39 33 26 15 40 45 51 49 47 43 41 42 35 29 35 32 29 39 34 46 48 41 38 37 31 31 35 38
3 7 12 17 14 9 5 3 4 4 6 17 14 9 10 26 38 24 20 18 43 46 41 43 40 38 35 31 34 25 33 27 29 42 38 43 43 41 40 44 45 46 48
4 6 5 9 13 11 9 6 9 6 6 13 15 10 12 13 27 24 19 15 29 44 38 32 34 42 41 35 34 37 30 33 30 33 38 31 37 40 45 44 44 46 47
5 6 7 5 4 9 13 9 10 9 9 9 18 10 19 18 18 30 19 16 16 19 23 23 26 27 33 35 39 38 39 37 31 22 31 35 33 35 33 33 39 43 42
8 6 7 7 7 5 7 10 12 12 12 9 13 8 14 13 16 23 20 16 16 20 21 14 14 19 20 23 20 25 20 40 32 33 30 31 31 39 36 35 39 44 45
12 9 8 7 7 7 7 6 5 8 11 15 12 12 9 15 13 15 17 14 26 21 18 12 15 17 15 22 18 18 19 18 19 23 27 31 32 34 34 35 39 43 50
12 13 11 10 8 8 8 8 8 8 7 9 11 16 14 11 10 11 12 15 15 22 24 18 16 19 20 16 18 22 18 21 25 27 26 36 32 39 41 45 48 52 50
10 11 14 14 12 10 8 8 8 9 9 9 8 9 15 17 16 16 14 12 13 17 20 22 20 24 26 21 22 22 30 24 25 33 33 34 42 48 49 52 54 57 59
6 8 8 10 11 11 11 11 10 8 8 8 9 10 10 10 11 17 22 22 21 22 22 23 24 24 25 23 27 31 32 31 31 34 37 39 43 46 48 51 52 53 53
4 5 4 5 7 9 12 12 12 12 11 10 9 8 8 8 8 8 9 10 13 17 22 25 27 29 29 29 29 30 29 31 30 33 34 33 33 33 33 35 38 41 44
7 5 5 4 2 4 5 5 6 6 7 8 8 9 11 11 10 8 8 9 11 12 14 15 16 17 17 15 12 12 13 14 14 16 18 17 17 24 25 25 27 28 28
11 8 7 7 8 6 4 2 2 2 1 1 4 10 10 12 13 12 11 8 2 4 8 13 15 15 12 7 7 10 17 15 13 11 12 11 19 22 20 27 23 33 34
17 15 12 9 7 10 12 11 7 3 2 4 11 12 11 16 15 18 18 20 19 18 15 3 6 4 12 16 10 21 20 17 16 19 23 23 23 38 38 29 30 44 47
26 22 18 15 14 12 9 13 15 10 6 10 13 14 13 14 13 4 13 16 16 15 19 16 5 7 16 8 8 13 19 24 27 19 20 25 30 31 40 37 38 35 44
35 31 27 24 21 17 16 13 12 13 9 17 14 17 16 14 13 7 4 10 14 10 9 11 13 8 8 6 14 18 26 30 34 31 23 32 32 39 41 38 33 41 49
43 40 35 32 30 26 24 22 19 19 21 19 22 27 24 22 21 22 16 10 17 26 25 22 22 20 22 22 27 26 29 34 34 38 45 44 41 47 46 50 42 51 54
44 42 39 38 36 36 33 31 29 26 25 25 26 29 36 32 28 27 27 31 34 33 23 25 28 27 28 27 36 34 36 39 44 41 44 45 51 54 56 54 56 57 62
44 41 39 38 39 39 40 39 37 33 30 28 26 27 28 35 39 36 33 34 38 38 28 27 31 27 31 34 38 38 39 41 46 48 49 50 50 56 59 62 60 70 64

GFSGL_250_spd_036.txt.gz
Wind_Speed
34 30 24 14 16 16 17 22 22 20 19 11 6 5 8 7 10 5 5 21 29 26 28 32 30 26 16 14 25 38 40 41 44 53 55 43 49 44 37 29 29 33 34
28 24 12 9 11 15 20 21 22 18 16 10 5 3 6 8 9 12 23 27 29 40 43 40 39 39 35 32 34 41 46 43 51 64 55 46 44 39 33 26 30 30 35
22 17 6 4 9 11 17 18 19 15 13 16 8 2 4 6 9 15 27 32 30 36 28 28 26 30 40 42 49 53 51 52 51 48 51 44 35 31 31 29 24 22 27
18 13 7 2 7 10 13 17 17 13 15 14 12 4 6 16 25 21 38 34 33 29 27 26 25 34 37 43 48 48 48 45 40 36 41 46 33 32 33 31 29 26 29
15 13 10 3 6 10 13 12 20 12 19 19 15 6 21 28 20 30 33 33 32 31 30 26 32 35 35 39 45 41 40 43 43 36 38 34 31 31 25 27 29 20 20
14 13 14 8 2 9 14 12 16 16 12 10 12 7 31 27 22 28 33 30 36 35 35 30 33 32 30 33 38 41 37 42 38 34 30 33 28 28 24 25 26 24 22
14 11 17 11 3 4 10 8 10 13 13 14 7 4 32 23 19 36 40 37 36 33 32 33 32 35 25 32 36 32 32 34 35 31 30 37 37 23 26 25 31 24 27
13 11 14 17 10 5 5 4 9 11 16 20 7 4 31 22 13 31 41 40 37 22 25 33 32 35 30 31 38 38 34 31 29 25 27 30 32 29 25 26 30 32 35
11 9 11 19 15 7 3 4 7 9 12 16 13 4 33 23 13 15 36 39 31 26 20 31 30 28 27 23 22 37 36 33 30 32 24 21 23 29 32 31 30 30 31
8 4 8 16 17 12 6 2 1 6 8 12 13 5 26 25 17 8 35 38 33 27 25 26 37 31 26 29 22 25 27 28 28 36 29 30 28 25 29 28 27 29 34
6 1 5 10 16 16 12 10 7 1 3 10 15 8 13 28 20 8 11 38 38 35 33 30 34 34 32 26 26 29 27 26 29 34 33 30 34 34 35 37 36 39 41
6 2 3 5 12 15 15 13 10 7 8 11 10 13 13 30 17 7 8 22 33 33 30 33 33 32 34 31 32 32 28 28 25 25 31 36 36 36 38 40 41 42 48
5 5 4 4 5 7 12 13 14 11 9 10 9 8 11 14 28 14 10 9 11 30 37 30 28 28 26 34 33 29 30 34 34 34 35 32 31 35 39 40 43 42 39
3 4 5 5 5 5 6 7 9 14 14 11 9 8 5 11 18 20 12 12 14 15 21 15 21 26 17 17 17 21 26 27 26 25 25 21 22 24 30 32 35 38 40
4 3 4 6 7 7 6 7 8 10 14 17 14 11 9 8 12 15 16 12 16 16 19 16 13 16 12 17 14 16 18 11 17 16 24 27 25 31 30 32 35 40 44
4 7 8 7 7 7 8 7 6 7 8 12 15 16 17 13 12 13 12 15 20 21 22 21 18 17 17 17 11 15 21 23 19 20 24 25 30 35 36 37 43 52 54
4 4 5 7 9 10 9 8 7 6 5 6 8 10 14 18 18 16 15 14 14 18 24 27 23 19 22 21 23 23 19 22 27 30 29 31 32 31 33 39 42 45 45
7 3 4 6 7 10 10 10 8 6 5 4 5 7 8 10 11 12 15 19 20 20 20 19 21 21 20 20 22 23 23 25 28 32 33 32 28 28 29 28 26 25 21
10 7 4 3 4 6 6 6 6 6 7 6 4 3 5 7 8 7 8 9 10 12 14 17 19 19 18 16 17 17 17 17 16 15 13 13 12 5 6 7 11 8 13
12 8 6 4 3 2 2 2 2 2 4 1 1 2 5 6 6 7 9 8 4 3 10 13 14 14 11 9 5 6 3 4 6 4 3 1 5 13 12 16 25 27 32
16 13 11 7 4 4 6 5 3 3 4 4 1 4 8 19 21 17 15 18 18 18 18 10 1 5 15 20 15 13 14 12 4 3 6 3 8 14 13 27 31 35 37
22 20 17 13 12 8 6 5 7 7 3 4 9 9 16 13 15 9 13 11 13 14 17 20 12 5 15 17 9 5 4 8 11 3 18 17 16 23 28 31 42 39 42
30 26 24 22 19 15 12 10 8 8 11 7 15 19 21 20 16 9 9 3 0 1 10 14 9 4 10 11 9 10 12 18 17 20 30 28 32 35 37 40 44 44 46
37 37 34 31 29 25 23 20 16 14 13 16 13 26 22 26 23 20 17 15 11 8 7 9 11 9 11 12 15 16 18 20 25 33 36 36 39 45 45 46 48 52 54
48 46 44 42 38 35 32 31 29 26 25 22 20 21 28 31 31 30 29 27 28 24 25 21 20 13 21 23 23 25 29 32 35 34 37 39 41 49 49 49 52 56 60
56 53 52 49 47 44 42 41 40 38 36 33 32 29 29 31 27 39 43 39 37 37 36 34 34 27 25 25 31 27 33 38 38 43 45 46 47 49 50 56 57 63 65

GFSGL_250_spd_042.txt.gz
Wind_Speed
27 27 28 29 26 21 19 22 21 15 13 13 7 5 6 3 4 5 3 7 6 3 2 4 2 5 5 7 15 20 30 32 41 51 47 46 48 45 41 46 47 40 39
28 25 28 25 20 15 15 17 15 14 16 18 10 4 4 3 2 6 6 3 2 3 4 9 1 5 4 7 12 19 25 26 29 51 45 44 45 44 43 44 45 38 36
24 26 27 21 13 10 13 14 15 17 18 15 12 4 4 4 6 10 5 3 4 4 2 10 14 17 16 15 17 15 17 17 21 41 41 36 37 41 42 44 37 27 33
22 24 25 17 10 8 11 14 16 19 19 12 11 4 5 9 13 10 6 7 8 16 10 14 16 22 23 21 24 20 19 18 22 28 30 31 36 38 34 27 27 24 25
23 25 23 14 11 9 10 11 14 19 21 13 11 4 12 13 16 10 13 7 13 16 13 16 28 28 28 27 28 28 28 29 29 29 24 31 40 35 30 24 21 20 23
24 25 19 12 12 10 9 9 12 14 18 16 8 16 6 15 13 10 13 14 21 17 19 21 28 36 28 34 38 35 34 36 37 40 37 41 32 25 25 20 18 18 18
24 24 15 10 14 13 10 7 10 14 16 11 6 9 7 24 13 13 13 17 21 19 20 25 26 28 29 32 32 30 29 27 27 28 27 25 21 21 19 16 15 18 14
22 21 14 11 12 15 10 7 7 11 13 13 3 13 8 21 11 19 15 20 21 20 21 26 26 24 27 27 26 29 26 23 19 15 16 16 13 19 17 14 15 12 10
21 16 11 12 13 17 12 8 7 8 11 16 3 15 10 18 17 17 20 21 21 19 21 21 22 20 20 23 21 19 26 26 21 17 14 14 14 17 17 15 16 12 11
20 13 9 6 10 17 14 6 6 7 12 12 4 17 10 19 24 20 16 22 23 25 20 20 20 18 19 19 17 17 16 18 19 14 17 13 14 16 18 19 17 14 18
17 10 8 6 8 14 13 9 6 7 10 15 14 20 17 16 24 23 22 21 22 20 23 21 19 18 17 20 17 16 17 17 18 15 16 12 13 14 14 15 16 16 18
13 9 6 5 5 9 14 12 9 5 7 15 23 23 20 15 22 20 14 21 21 18 21 17 14 12 13 15 12 15 19 16 10 7 16 11 12 15 14 12 13 16 22
11 7 5 4 2 3 9 12 10 6 1 9 13 24 14 11 15 28 20 21 22 17 15 19 16 14 13 13 10 9 9 8 9 11 13 17 20 23 22 26 27 30 31
9 5 3 2 2 2 5 10 10 10 5 2 9 23 18 14 15 26 23 26 21 22 21 18 18 19 19 21 18 16 19 20 21 23 26 27 26 28 30 29 22 17 17
6 3 2 1 3 5 5 6 12 13 10 4 7 16 21 16 14 15 17 12 10 19 22 22 17 17 15 15 17 18 18 21 23 23 17 15 16 12 11 15 19 23 26
3 3 1 3 4 6 6 7 7 12 15 10 3 9 14 17 15 13 10 5 11 13 12 11 10 7 7 9 9 8 8 10 9 6 5 9 14 18 22 25 28 30 32
1 2 5 6 6 6 6 7 8 8 10 13 10 10 8 8 8 9 12 13 11 8 13 14 10 9 11 11 10 15 12 11 15 16 13 16 20 23 25 30 32 28 14
3 3 5 7 11 11 9 10 8 8 9 9 9 11 14 15 13 12 11 16 13 12 18 18 16 17 18 18 15 11 19 18 20 25 25 23 22 20 17 12 7 3 7
10 5 5 9 10 11 12 13 13 12 10 8 6 6 7 8 10 14 15 16 17 17 15 15 18 22 25 24 24 22 21 21 24 18 17 14 12 7 1 4 5 5 11
15 11 8 7 5 4 6 7 9 11 10 9 9 8 6 5 7 8 9 9 10 10 11 12 13 15 17 17 15 15 12 10 10 9 8 8 8 7 9 10 11 10 13
17 15 13 11 9 7 5 4 4 5 9 10 8 5 6 7 8 8 10 18 17 13 6 7 11 12 11 10 11 10 9 10 8 5 3 2 8 10 5 15 16 19 20
20 16 15 14 13 12 11 9 6 4 4 5 6 7 9 11 16 21 19 10 8 11 13 10 1 4 9 11 13 10 10 9 5 6 5 6 4 10 16 19 22 28 33
28 24 20 17 16 14 12 10 9 9 8 6 5 5 8 8 9 13 11 7 7 7 5 8 7 0 5 14 16 15 4 5 5 5 12 12 16 18 22 28 34 38 38
32 29 26 24 23 21 18 15 12 11 8 9 10 8 9 16 14 15 14 15 14 13 14 13 12 12 4 11 16 20 17 17 18 20 19 22 24 26 32 37 39 33 32
36 34 32 30 28 28 26 23 20 18 16 14 11 10 15 14 14 23 25 23 22 22 20 20 21 24 20 16 17 19 20 22 22 26 29 30 34 36 36 35 36 42 45
43 41 39 36 35 34 32 30 29 27 25 25 24 23 21 22 23 24 24 29 34 35 36 35 33 32 32 32 31 31 37 36 35 36 37 39 43 43 41 41 45 44 47

GFSGL_250_spd_045.txt.gz
Wind_Speed
22 25 29 28 32 32 22 18 19 20 19 20 19 13 14 10 8 8 6 11 12 12 14 10 9 3 2 5 10 12 19 46 53 47 44 40 41 42 43 46 42 27 33
23 28 27 28 31 25 16 17 18 17 20 20 17 12 9 7 6 4 6 11 14 15 15 12 9 3 2 6 9 13 29 51 51 43 47 41 38 40 44 47 39 31 30
23 25 24 28 28 19 12 14 17 17 21 18 16 11 7 3 1 2 5 10 13 15 14 12 13 12 12 13 15 16 34 46 47 40 35 31 39 39 37 40 45 42 34
25 23 26 28 24 15 11 13 13 17 20 17 16 7 7 5 8 2 8 10 15 18 16 21 23 23 22 21 21 19 22 32 31 37 29 25 38 34 40 40 32 35 33
25 23 27 27 21 15 10 9 12 16 20 21 10 3 9 12 11 7 12 16 22 23 21 26 30 30 27 26 27 23 22 21 21 25 27 30 35 38 35 32 23 22 23
24 24 27 26 19 13 9 8 11 15 19 19 6 8 7 13 12 13 18 17 27 28 25 31 37 36 35 33 34 33 31 27 23 25 26 29 28 29 29 27 26 24 22
23 24 28 25 18 12 12 11 12 13 18 19 3 5 17 13 16 24 18 22 28 28 27 34 38 34 34 36 39 37 35 32 34 36 41 36 33 30 26 24 19 14 14
21 24 27 25 17 13 12 12 11 13 14 17 3 7 15 13 16 22 19 22 25 24 23 29 31 30 27 33 32 35 36 36 38 34 30 28 24 23 17 16 15 14 13
21 25 26 22 18 13 12 13 11 12 15 15 4 8 18 12 19 26 21 21 25 26 25 28 20 23 27 24 26 27 31 29 25 23 20 15 15 16 14 10 10 13 10
22 25 24 16 12 8 14 15 11 10 14 15 8 12 21 14 21 27 22 20 21 23 22 21 25 24 23 21 22 22 23 24 23 21 19 15 15 15 12 13 11 9 6
21 23 20 12 8 8 14 15 11 9 12 11 17 9 19 22 21 22 24 19 22 20 21 21 19 17 18 13 12 17 16 17 14 11 12 14 13 12 11 9 10 9 10
21 22 16 9 8 7 12 15 13 8 9 7 17 14 25 24 24 25 27 24 18 14 19 15 16 17 17 13 9 8 10 8 7 10 5 6 4 4 5 6 7 11 11
20 20 12 7 7 5 9 13 11 6 3 11 22 21 9 24 28 24 23 23 17 18 16 14 15 11 13 14 10 11 9 7 6 6 5 7 4 6 11 14 16 17 18
18 17 7 4 5 3 7 11 7 6 1 4 21 16 8 16 25 20 27 18 17 16 16 18 16 13 12 11 10 10 11 13 9 9 10 12 12 15 20 23 16 14 14
15 11 5 2 2 1 4 9 9 8 5 6 20 14 9 15 28 24 21 19 20 18 17 16 13 13 14 15 11 9 10 9 10 12 12 12 16 11 9 8 9 14 16
12 8 3 2 2 2 5 7 11 11 8 6 9 17 17 11 14 19 17 15 18 19 20 21 18 18 12 12 11 9 12 11 8 8 4 4 7 10 14 15 19 22 27
10 7 4 1 3 4 5 5 9 13 12 9 8 11 12 13 13 18 10 9 10 15 14 12 9 7 8 9 8 6 6 6 8 10 10 10 12 15 16 18 20 23 16
7 6 4 2 5 5 5 5 6 9 11 13 12 11 11 10 11 10 12 12 11 8 8 13 13 11 10 10 10 9 11 13 15 15 17 19 18 16 15 13 8 6 7
7 7 2 5 7 10 9 8 7 8 8 9 9 12 14 14 15 15 14 13 17 16 11 15 18 17 17 17 18 18 17 18 16 18 22 22 16 9 6 9 6 4 5
8 9 7 6 5 6 7 6 5 6 8 9 9 10 10 9 9 10 12 11 11 12 15 17 18 19 20 21 20 20 21 20 18 17 15 12 7 9 9 8 3 6 9
12 12 13 10 8 6 5 6 6 5 7 9 8 6 6 7 8 8 8 7 7 2 8 12 12 12 12 13 13 14 12 13 11 7 5 3 3 5 7 6 10 13 17
17 15 15 15 13 10 8 5 3 2 3 3 3 4 5 6 8 18 15 15 12 13 12 8 3 4 7 12 13 11 12 10 8 6 7 4 3 5 9 14 18 21 26
23 20 18 17 15 13 11 10 9 7 6 4 4 5 7 10 16 18 11 8 3 3 4 7 7 6 6 8 9 12 11 10 7 10 10 10 14 18 20 21 23 26 32
27 26 23 23 19 17 14 11 10 8 5 7 8 6 10 12 13 15 16 13 10 10 10 7 10 9 12 13 7 13 15 10 9 12 17 20 21 20 24 30 33 35 39
33 32 32 30 27 24 21 19 17 15 13 10 9 7 8 9 10 16 19 21 20 18 19 19 17 16 16 15 14 12 19 22 26 23 23 27 31 33 36 39 42 44 50
38 43 39 36 33 31 29 27 25 23 22 20 18 18 19 17 17 18 19 21 21 22 22 24 27 28 31 33 31 30 30 30 29 34 38 40 41 44 44 48 51 53 55

GFSGL_250_spd_048.txt.gz
Wind_Speed
25 26 25 28 31 29 35 31 25 22 23 26 30 27 22 17 13 12 12 16 15 12 13 14 11 6 5 3 2 7 14 21 41 45 43 37 33 31 32 32 39 36 37
24 22 23 28 28 30 31 27 20 19 22 27 28 23 18 12 7 4 10 13 14 17 16 15 13 6 2 1 4 11 22 42 46 48 41 41 39 37 36 35 36 32 33
22 20 25 26 26 28 26 22 17 17 22 26 26 21 14 6 3 6 8 11 12 15 14 13 11 9 2 8 10 20 37 41 43 42 34 37 42 48 47 31 34 21 29
19 20 25 24 25 26 21 16 13 14 20 27 26 13 2 4 6 9 11 14 15 16 19 18 15 11 8 13 17 29 33 36 37 31 36 41 41 46 48 44 29 30 29
18 22 27 24 24 23 16 12 10 13 19 26 23 6 6 9 10 14 13 16 22 27 24 21 19 17 18 18 22 29 28 29 31 24 22 36 38 44 39 37 34 26 29
23 27 30 25 23 21 14 11 11 13 17 20 16 10 6 11 15 15 17 21 32 34 33 31 27 23 24 24 24 26 24 22 13 19 16 38 34 39 31 27 24 24 25
28 27 26 24 23 21 14 12 9 9 15 15 16 9 8 13 17 13 19 26 33 33 34 38 35 32 30 30 32 30 25 26 26 23 32 33 29 29 27 25 22 25 20
19 25 23 23 23 18 17 12 8 8 11 14 10 1 17 22 19 17 21 29 33 31 31 37 37 39 39 35 32 35 32 30 30 32 33 33 28 27 24 23 21 20 18
19 27 22 22 22 16 16 11 6 7 10 13 9 9 13 25 21 20 26 24 23 25 31 31 31 32 36 43 43 44 41 41 40 37 34 33 29 25 22 22 20 17 11
22 24 20 22 20 13 10 8 7 6 9 11 9 11 17 28 24 20 26 20 22 21 26 24 26 28 29 30 28 31 33 32 28 27 28 29 26 21 18 16 13 10 6
23 20 20 21 15 10 7 6 8 7 9 14 8 16 22 31 25 20 22 23 22 21 23 27 24 21 23 25 27 24 22 21 22 23 21 19 17 15 13 15 13 12 12
20 16 19 19 11 9 6 7 8 5 8 0 13 16 24 30 26 19 20 23 20 18 18 22 21 17 18 15 11 10 13 9 12 16 15 15 16 16 14 12 13 11 6
14 16 19 14 9 8 6 5 6 2 5 11 13 23 27 30 28 27 17 24 23 20 17 17 18 19 15 10 14 12 8 9 8 9 12 14 13 12 10 9 4 7 12
10 14 16 11 8 6 3 5 6 7 7 21 18 14 18 24 31 29 27 20 17 14 13 13 15 16 15 15 15 13 11 12 12 13 13 13 12 13 10 9 12 14 15
7 12 12 8 6 3 1 7 9 10 8 23 16 14 7 29 29 26 25 20 18 21 20 19 23 19 16 12 9 11 11 9 10 12 11 12 14 12 14 15 14 8 10
4 9 9 5 5 1 5 10 11 12 9 12 21 14 10 19 24 19 26 21 19 17 16 15 14 14 11 13 12 12 13 15 14 13 13 14 10 11 9 7 8 13 13
1 6 7 4 6 4 6 8 13 13 10 11 14 21 14 14 26 22 15 16 15 19 19 17 19 21 22 16 15 14 13 10 13 11 11 9 8 9 11 13 14 15 18
4 2 5 3 4 6 7 8 9 13 13 12 12 15 21 18 16 22 18 18 17 15 20 20 17 14 10 14 16 14 11 12 11 12 12 13 13 14 13 15 17 16 13
9 4 0 1 1 4 5 6 8 9 11 13 14 15 14 15 16 20 20 16 15 13 11 11 15 16 14 13 13 13 9 10 13 15 16 15 18 20 17 13 9 9 8
9 6 4 4 1 2 5 5 4 7 10 12 12 13 14 16 15 17 16 15 16 18 18 17 14 18 20 18 17 18 20 19 17 17 18 15 12 11 10 12 10 8 5
11 10 8 6 4 1 1 4 4 3 4 5 7 9 11 12 12 12 15 16 14 12 13 14 14 14 15 16 17 18 18 16 14 11 6 7 10 11 13 14 9 6 9
14 12 11 11 9 6 3 3 3 3 5 4 2 4 7 9 11 18 19 17 15 11 9 9 8 4 1 6 9 11 10 8 6 8 7 8 8 6 9 11 13 15 17
15 15 12 9 9 8 7 6 6 6 6 6 4 4 5 8 18 18 19 15 10 9 8 8 8 6 5 9 2 7 10 11 10 8 8 9 8 9 12 16 19 21 24
21 17 15 13 13 10 8 9 8 8 6 8 8 9 9 12 15 16 15 10 7 6 6 5 4 7 9 10 10 2 9 11 11 9 10 12 16 19 20 21 25 28 31
27 25 23 20 18 17 16 13 12 12 10 8 9 10 12 14 16 20 16 13 14 14 13 12 15 17 14 14 12 11 9 10 18 20 20 23 26 27 31 35 40 38 40
31 31 29 27 26 25 23 22 21 20 18 17 16 15 14 15 16 17 17 16 15 14 15 16 15 16 21 21 22 23 24 25 26 25 29 34 36 37 36 40 42 45 49